星链-3805 (STARLINK-3805 )

导读 | 豆包AI

STARLINK-3805是美国SpaceX星链星座的一颗卫星,于2022年4月29日发射入轨,属于星链低轨互联网星座组网卫星。它遵循星链卫星设计,采用平板构型,配备单太阳翼和相控阵天线,依靠氪离子霍尔推进实现轨道维持与离轨,支持星间激光通信与自主碰撞规避,可为全球无网盲区提供低时延宽带互联网接入服务,属于星链第二代组网卫星,共同构建全球卫星通信网络。

基本信息
目录编号:
52377
目录名称:
STARLINK-3805
国际标识:
2022-045AY
轨道中心:
EARTH
卫星名称:
星链-3805
卫星全名:
星链-3805 (STARLINK-3805 )
卫星状态:
在轨 (已飞行1415 天)
发射日期:
2022-04-29 UTC
国别 :
美国 (US)
星等 :
--
轨道信息
数据来源 国际轨道数据
星历时间: 2026-03-14T20:52:28+0800
10小时前
查看轨道信息
半长轴: 6917.867km
偏心率: 0.0001197
轨道倾角: 53.217°
近地点辐角 79.174°
升交点赤经 167.587°
平近点角 280.939°
近地点: 538.901km
远地点: 540.559km
周期: 95.437分钟
每日圈数: 15.088447
详细信息
固有亮度:
5
最大亮度:
2.5
卫星平台:
Starlink v1.5
覆盖范围:
全球
运营商:
太空探索技术公司
运营商所在国:
美国
制造商(研发单位):
太空探索技术公司
制造商所在国:
美国
使用方式:
暂无
卫星简介
星链(Starlink)计划是由太空探索技术公司(SpaceX)提出的一个巨型低轨卫星互联网星座项目,计划在2019年至2024年间在太空搭建由约1.2万颗卫星组成的“星链”网络,其中1584颗将部署在地球上空550千米处的近地轨道,并从2020年开始工作。该卫星仍在工作。
2D轨道图
3D轨道图
轨道高度分析图
轨道倾角分析图
轨道综合分析图
查看轨道综合分析图